EW4561 Weather Reports


time (UTC)temp
C
wind
direction
speed
KPH
gust
KPH
rain 1hr
cm
rain 24hr
cm
rain mn
cm
humidity
%
barometer
mb
20260504141243 17 0 0.0 0.0 0.00 0.00 0.00 85 1014.5
20260504130643 17 0 0.0 0.0 0.00 0.00 0.00 84 1014.4
20260504081843 19 1 1.6 4.8 0.00 0.00 0.00 78 1012.6
20260504081241 19 43 1.6 6.4 0.00 0.00 0.00 78 1012.5
20260504080642 19 59 1.6 6.4 0.00 0.00 0.00 78 1012.5
20260504050643 18 336 3.2 8.0 0.00 0.00 0.00 83 1012.6
20260504045441 18 37 1.6 12.9 0.00 0.00 0.00 84 1012.6
20260504044842 18 354 1.6 8.0 0.00 0.00 0.00 84 1012.5
20260504044242 18 321 3.2 8.0 0.00 0.00 0.00 85 1012.7
20260504043641 18 334 3.2 8.0 0.00 0.00 0.00 85 1012.6
20260504043041 18 329 1.6 8.0 0.00 0.00 0.00 85 1012.8
20260504042442 18 335 1.6 8.0 0.00 0.00 0.00 85 1012.6
20260504041842 18 333 1.6 8.0 0.00 0.00 0.00 85 1012.6
20260504041242 18 326 1.6 8.0 0.00 0.00 0.00 85 1012.6
20260504040642 18 321 1.6 6.4 0.00 0.00 0.00 86 1012.7
20260504040042 18 324 1.6 9.7 0.00 0.00 0.00 86 1012.8
20260504035442 18 323 3.2 9.7 0.00 0.00 0.00 86 1012.9
20260504034241 17 336 1.6 8.0 0.00 0.00 0.00 86 1013.0
20260504033641 17 325 1.6 8.0 0.00 0.00 0.00 86 1013.0
20260504032442 17 316 0.0 8.0 0.00 0.00 0.00 86 1013.2
20260504031842 17 306 1.6 6.4 0.00 0.00 0.00 86 1013.3
20260504031241 17 320 1.6 8.0 0.00 0.00 0.00 86 1013.4
20260504030042 17 53 0.0 6.4 0.00 0.00 0.00 86 1013.8
20260504025442 17 59 0.0 6.4 0.00 0.00 0.00 86 1013.7
20260504024842 17 24 1.6 8.0 0.00 0.00 0.00 86 1013.9
20260504024242 16 39 3.2 8.0 0.00 0.00 0.00 85 1014.0
20260504023642 16 35 3.2 9.7 0.00 0.00 0.00 85 1014.1
20260504023041 16 27 3.2 12.9 0.00 0.00 0.00 85 1014.3
20260504022441 17 49 3.2 12.9 0.00 0.00 0.00 85 1014.3
20260504021842 17 54 1.6 12.9 0.00 0.00 0.00 85 1014.4
20260504021242 17 37 1.6 6.4 0.00 0.00 0.00 85 1014.7
20260504020641 17 51 1.6 8.0 0.00 0.00 0.00 85 1014.8
20260504020042 17 48 1.6 8.0 0.00 0.00 0.00 85 1015.0
20260504015442 17 2 0.0 4.8 0.00 0.00 0.00 85 1015.1
20260504014242 17 84 1.6 8.0 0.00 0.00 0.00 85 1015.3
20260504013641 17 87 1.6 8.0 0.00 0.00 0.00 85 1015.4
20260504013041 17 54 0.0 4.8 0.00 0.00 0.00 85 1015.5
20260504012442 17 51 0.0 4.8 0.00 0.00 0.00 85 1015.7
20260504011242 17 40 0.0 1.6 0.00 0.00 0.00 85 1015.8
20260504010042 17 15 0.0 4.8 0.00 0.00 0.00 85 1016.0
20260504005441 17 0 0.0 0.0 0.00 0.00 0.00 84 1016.1
20260504004841 17 0 0.0 0.0 0.00 0.00 0.00 85 1016.0
20260504004242 17 0 0.0 0.0 0.00 0.00 0.00 85 1015.9
20260504003641 16 0 0.0 0.0 0.00 0.00 0.00 85 1015.8
20260504003043 16 0 0.0 0.0 0.00 0.00 0.00 84 1015.8
20260504001841 16 0 0.0 0.0 0.00 0.00 0.00 84 1015.8
20260504001242 16 0 0.0 0.0 0.00 0.00 0.00 84 1015.8
20260504000041 16 0 0.0 0.0 0.00 0.00 0.00 84 1015.9
20260503234841 16 0 0.0 0.0 0.00 0.00 0.00 84 1015.8
20260503234242 16 0 0.0 0.0 0.00 0.00 0.00 84 1015.7
20260503233641 16 0 0.0 0.0 0.00 0.00 0.00 84 1015.6
20260503233041 16 0 0.0 0.0 0.00 0.00 0.00 84 1015.9
20260503232442 16 335 0.0 1.6 0.00 0.00 0.00 84 1016.0
20260503231242 16 342 3.2 9.7 0.00 0.00 0.00 83 1015.9
20260503230641 16 75 1.6 9.7 0.00 0.00 0.00 83 1015.8
20260503230041 16 112 0.0 9.7 0.00 0.00 0.00 83 1015.8
20260503224842 16 0 0.0 0.0 0.00 0.00 0.00 83 1016.2
20260503224242 16 0 0.0 0.0 0.00 0.00 0.00 83 1016.4
20260503223640 16 0 0.0 0.0 0.00 0.00 0.00 83 1016.3
20260503223041 16 0 0.0 0.0 0.00 0.00 0.00 83 1016.1
20260503222441 16 0 0.0 0.0 0.00 0.00 0.00 83 1015.8
20260503221841 16 0 0.0 0.0 0.00 0.00 0.00 84 1015.6
20260503220641 15 0 0.0 0.0 0.00 0.00 0.00 84 1015.4
20260503220042 15 0 0.0 0.0 0.00 0.00 0.00 83 1015.2
20260503215441 15 0 0.0 0.0 0.00 0.00 0.00 83 1015.1
20260503214840 15 0 0.0 0.0 0.00 0.00 0.00 83 1015.1
20260503214241 15 0 0.0 0.0 0.00 0.00 0.00 83 1015.1
20260503213042 15 0 0.0 0.0 0.00 0.00 0.00 83 1015.1
20260503212441 15 0 0.0 0.0 0.00 0.00 0.00 83 1015.0
20260503211842 15 0 0.0 0.0 0.00 0.00 0.00 83 1015.1
20260503210041 15 0 0.0 0.0 0.00 0.00 0.00 83 1014.8
20260503205441 15 0 0.0 0.0 0.00 0.00 0.00 83 1014.7
20260503204841 15 0 0.0 0.0 0.00 0.00 0.00 83 1014.7
20260503204242 15 0 0.0 0.0 0.00 0.00 0.00 83 1014.6
20260503203641 15 0 0.0 0.0 0.00 0.00 0.00 83 1014.5
20260503203040 15 0 0.0 0.0 0.00 0.00 0.00 83 1014.5
20260503202440 15 0 0.0 0.0 0.00 0.00 0.00 83 1014.4
20260503201841 15 0 0.0 0.0 0.00 0.00 0.00 83 1014.4
20260503201242 15 0 0.0 0.0 0.00 0.00 0.00 83 1014.3
20260503200641 15 0 0.0 0.0 0.00 0.00 0.00 83 1014.3
20260503195442 15 0 0.0 0.0 0.00 0.00 0.00 83 1014.2
20260503194841 15 0 0.0 0.0 0.00 0.00 0.00 83 1014.2
20260503194241 15 0 0.0 0.0 0.00 0.00 0.00 83 1014.3
20260503193641 15 0 0.0 0.0 0.00 0.00 0.00 83 1014.2
20260503193040 15 0 0.0 0.0 0.00 0.00 0.00 83 1014.2
20260503192441 15 0 0.0 0.0 0.00 0.00 0.00 83 1014.1
20260503191842 15 0 0.0 0.0 0.00 0.00 0.00 83 1014.1
20260503191241 15 0 0.0 0.0 0.00 0.00 0.00 83 1014.1
20260503190041 15 0 0.0 0.0 0.00 0.00 0.00 83 1014.1
20260503185442 15 0 0.0 0.0 0.00 0.00 0.00 83 1014.1
20260503184841 15 0 0.0 0.0 0.00 0.00 0.00 83 1014.1
20260503184241 15 0 0.0 0.0 0.00 0.00 0.00 83 1014.1
20260503183641 15 0 0.0 0.0 0.00 0.00 0.00 82 1014.1
20260503183041 15 0 0.0 0.0 0.00 0.00 0.00 82 1014.2
20260503182442 14 0 0.0 0.0 0.00 0.00 0.00 82 1014.1
20260503181842 14 0 0.0 0.0 0.00 0.00 0.00 82 1014.1
20260503181241 14 0 0.0 0.0 0.00 0.00 0.00 82 1014.0
20260503180642 14 0 0.0 0.0 0.00 0.00 0.00 82 1014.1
20260503175441 14 0 0.0 0.0 0.00 0.00 0.00 82 1014.2
20260503174841 14 0 0.0 0.0 0.00 0.00 0.00 82 1014.2
20260503174241 14 0 0.0 0.0 0.00 0.00 0.00 82 1014.1
20260503173641 14 0 0.0 0.0 0.00 0.00 0.00 82 1014.1
20260503173042 14 0 0.0 0.0 0.00 0.00 0.00 82 1014.1
20260503172441 14 0 0.0 0.0 0.00 0.00 0.00 82 1014.2
20260503171841 14 0 0.0 0.0 0.00 0.00 0.00 82 1014.2
20260503171241 14 0 0.0 0.0 0.00 0.00 0.00 82 1014.2
20260503170641 14 0 0.0 0.0 0.00 0.00 0.00 82 1014.2
20260503150641 15 0 0.0 0.0 0.00 0.00 0.00 80 1015.3